TimeEDT,TemperatureF,Dew PointF,Humidity,Sea Level PressureIn,VisibilityMPH,Wind Direction,Wind SpeedMPH,Gust SpeedMPH,PrecipitationIn,Events,Conditions,WindDirDegrees,DateUTC
12:54 AM,45.0,27.0,49,30.15,10.0,Variable,4.6,-,N/A,,Overcast,0,2013-03-29 04:54:00
1:54 AM,44.1,27.0,51,30.16,10.0,Variable,5.8,-,N/A,,Mostly Cloudy,0,2013-03-29 05:54:00
2:54 AM,42.1,26.1,53,30.16,10.0,NW,4.6,-,N/A,,Clear,310,2013-03-29 06:54:00
3:54 AM,41.0,26.1,55,30.16,10.0,WNW,4.6,-,N/A,,Clear,290,2013-03-29 07:54:00
4:54 AM,39.0,26.1,60,30.16,10.0,West,4.6,-,N/A,,Clear,280,2013-03-29 08:54:00
5:54 AM,39.0,26.1,60,30.17,10.0,West,4.6,-,N/A,,Clear,280,2013-03-29 09:54:00
6:54 AM,37.9,26.1,62,30.18,10.0,West,3.5,-,N/A,,Clear,280,2013-03-29 10:54:00
7:54 AM,39.9,26.1,58,30.19,10.0,West,5.8,-,N/A,,Clear,280,2013-03-29 11:54:00
8:54 AM,43.0,26.1,51,30.19,10.0,NNW,8.1,-,N/A,,Clear,330,2013-03-29 12:54:00
9:54 AM,46.0,25.0,44,30.18,10.0,NW,8.1,-,N/A,,Clear,310,2013-03-29 13:54:00
10:54 AM,48.9,25.0,39,30.18,10.0,West,8.1,-,N/A,,Clear,260,2013-03-29 14:54:00
11:54 AM,48.9,24.1,38,30.17,10.0,Variable,3.5,-,N/A,,Clear,0,2013-03-29 15:54:00
12:54 PM,51.1,25.0,36,30.14,10.0,WNW,10.4,16.1,N/A,,Scattered Clouds,300,2013-03-29 16:54:00
1:54 PM,53.1,25.0,34,30.12,10.0,NW,9.2,-,N/A,,Mostly Cloudy,310,2013-03-29 17:54:00
2:54 PM,53.1,25.0,34,30.10,10.0,WNW,11.5,19.6,N/A,,Overcast,290,2013-03-29 18:54:00
3:54 PM,52.0,26.1,37,30.09,10.0,NNW,8.1,-,N/A,,Overcast,330,2013-03-29 19:54:00
4:54 PM,52.0,26.1,37,30.10,10.0,NW,6.9,-,N/A,,Overcast,320,2013-03-29 20:54:00
5:54 PM,52.0,27.0,38,30.10,10.0,NW,12.7,17.3,N/A,,Overcast,310,2013-03-29 21:54:00
6:54 PM,50.0,28.0,43,30.11,10.0,NW,4.6,-,N/A,,Overcast,320,2013-03-29 22:54:00
7:54 PM,50.0,28.0,43,30.13,10.0,WNW,3.5,-,N/A,,Overcast,300,2013-03-29 23:54:00
8:54 PM,48.9,28.0,44,30.14,10.0,NW,3.5,-,N/A,,Overcast,310,2013-03-30 00:54:00
9:54 PM,48.0,28.0,46,30.15,10.0,Calm,Calm,-,N/A,,Overcast,0,2013-03-30 01:54:00
10:54 PM,48.0,28.0,46,30.16,10.0,Calm,Calm,-,N/A,,Overcast,0,2013-03-30 02:54:00
11:54 PM,46.9,28.0,48,30.17,10.0,Calm,Calm,-,N/A,,Overcast,0,2013-03-30 03:54:00